This is the latest recevied weather packets stored in our database for station/object N1UNH. If no packets are shown the sender has not sent any weather packets the latest 10 day(s).
| Time | Temp. | Humidity | Pressure | Rain* | Wind** | Luminosity | Snow |
|---|---|---|---|---|---|---|---|
| 1778095880 | 16.11° C | 94% | 1011.1 hPa | 0 mm | - | 65 W/m² | - |
| 1778095576 | 16.11° C | 94% | 1011.1 hPa | 0 mm | - | 63 W/m² | - |
| 1778095272 | 16.11° C | 94% | 1011.3 hPa | 0 mm | - | 49 W/m² | - |
| 1778094969 | 16.11° C | 94% | 1011 hPa | 0 mm | - | 70 W/m² | - |
| 1778094665 | 16.11° C | 94% | 1011 hPa | 0 mm | - | 61 W/m² | - |
| 1778094363 | 16.11° C | 94% | 1011.1 hPa | 0 mm | - | 86 W/m² | - |
| 1778094059 | 16.11° C | 94% | 1011 hPa | 0 mm | - | 91 W/m² | - |
| 1778093757 | 16.11° C | 94% | 1011.2 hPa | 1.27 mm | - | 82 W/m² | - |
| 1778093453 | 16.11° C | 93% | 1011.7 hPa | 1.27 mm | - | 86 W/m² | - |
| 1778093150 | 16.11° C | 93% | 1011.7 hPa | 0 mm | - | 80 W/m² | - |
| 1778092848 | 16.11° C | 93% | 1011.5 hPa | 1.78 mm | - | 79 W/m² | - |
| 1778092543 | 16.11° C | 93% | 1011.8 hPa | 1.78 mm | - | 83 W/m² | - |
| 1778092240 | 16.11° C | 93% | 1012.3 hPa | 1.78 mm | - | 47 W/m² | - |
| 1778091938 | 16.11° C | 93% | 1012.1 hPa | 0 mm | - | 39 W/m² | - |
| 1778091635 | 16.11° C | 93% | 1012 hPa | 1.27 mm | - | 37 W/m² | - |
| 1778091333 | 16.11° C | 93% | 1012.3 hPa | 1.27 mm | - | 66 W/m² | - |
| 1778091029 | 16.11° C | 92% | 1012.2 hPa | 1.78 mm | - | 71 W/m² | - |
| 1778090726 | 16.11° C | 91% | 1012.2 hPa | 1.78 mm | - | 78 W/m² | - |
| 1778090422 | 16.11° C | 91% | 1012.4 hPa | 1.27 mm | - | 59 W/m² | - |
| 1778090119 | 16.11° C | 90% | 1012.5 hPa | 1.27 mm | - | 65 W/m² | - |
| 1778089815 | 16.11° C | 88% | 1012.5 hPa | 1.78 mm | - | 61 W/m² | - |
| 1778089514 | 16.67° C | 88% | 1012.7 hPa | 1.78 mm | - | 52 W/m² | - |
| 1778089210 | 16.67° C | 87% | 1012.5 hPa | 1.27 mm | - | 66 W/m² | - |
| 1778088908 | 16.67° C | 85% | 1012.6 hPa | 3.05 mm | - | 66 W/m² | - |
| 1778088604 | 17.22° C | 83% | 1012.6 hPa | 1.78 mm | - | 54 W/m² | - |
* Rain latest hour (hover to see other rain measurements)
** Current wind speed in m/s (hover to see current wind gust speed)